FW6397 Weather Reports


time (UTC)temp
F
wind
direction
speed
knots
gust
knots
rain 1hr
in
rain 24hr
in
rain mn
in
humidity
%
barometer
mb
20210920054050 81 352 0.9 2.6 0.00 0.00 0.00 35 1009.2
20210920053600 82 352 0.0 2.6 0.00 0.00 0.00 35 1009.1
20210920053203 82 352 0.0 2.6 0.00 0.00 0.00 37 1009.2
20210920052550 82 352 0.0 2.6 0.00 0.00 0.00 37 1009.2
20210920052051 81 352 0.0 1.7 0.00 0.00 0.00 37 1009.1
20210920051626 82 352 0.0 7.0 0.00 0.00 0.00 37 1009.2
20210920051100 84 352 1.7 7.8 0.00 0.00 0.00 35 1009.1
20210920050604 84 352 4.3 9.6 0.00 0.00 0.00 33 1009.2
20210920050121 85 352 3.5 8.7 0.00 0.00 0.00 31 1009.1
20210920045555 85 352 3.5 10.4 0.00 0.00 0.00 29 1009.1
20210920045050 85 352 3.5 10.4 0.00 0.00 0.00 28 1009.0
20210920044622 85 352 1.7 9.6 0.00 0.00 0.00 28 1009.1
20210920044049 85 352 1.7 7.8 0.00 0.00 0.00 27 1009.1
20210920043549 85 352 2.6 9.6 0.00 0.00 0.00 27 1009.1
20210920043108 85 352 3.5 9.6 0.00 0.00 0.00 27 1009.1
20210920042549 85 352 2.6 8.7 0.00 0.00 0.00 27 1009.0
20210920042049 85 352 2.6 10.4 0.00 0.00 0.00 27 1009.0
20210920041633 85 352 4.3 8.7 0.00 0.00 0.00 27 1009.0
20210920041108 86 352 4.3 9.6 0.00 0.00 0.00 27 1009.0
20210920040118 86 352 5.2 10.4 0.00 0.00 0.00 27 1008.9
20210920035547 86 352 6.1 10.4 0.00 0.00 0.00 26 1008.9
20210920035046 86 352 5.2 10.4 0.00 0.00 0.00 27 1008.8
20210920034628 86 352 4.3 11.3 0.00 0.00 0.00 26 1008.7
20210920034108 87 352 4.3 11.3 0.00 0.00 0.00 26 1008.7
20210920033546 87 352 5.2 11.3 0.00 0.00 0.00 26 1008.6
20210920033056 87 352 7.0 10.4 0.00 0.00 0.00 26 1008.6
20210920032545 87 352 4.3 9.6 0.00 0.00 0.00 26 1008.6
20210920032045 87 352 4.3 8.7 0.00 0.00 0.00 26 1008.5
20210920031548 87 352 4.3 9.6 0.00 0.00 0.00 26 1008.4
20210920031045 87 352 3.5 9.6 0.00 0.00 0.00 27 1008.3
20210920030544 87 352 4.3 8.7 0.00 0.00 0.00 27 1008.2
20210920030123 88 352 4.3 8.7 0.00 0.15 0.00 26 1008.2
20210920025544 88 352 4.3 8.7 0.00 0.15 0.00 26 1008.1
20210920025045 88 352 3.5 8.7 0.00 0.15 0.00 27 1008.0
20210920024618 88 352 1.7 7.0 0.00 0.15 0.00 27 1008.0
20210920024055 88 352 2.6 8.7 0.00 0.15 0.00 27 1007.9
20210920023542 87 352 4.3 8.7 0.00 0.15 0.00 28 1007.7
20210920023102 86 352 3.5 7.0 0.00 0.15 0.00 29 1007.7
20210920022547 85 352 3.5 7.0 0.00 0.15 0.00 33 1007.6
20210920022101 85 352 0.9 2.6 0.00 0.15 0.00 45 1007.5
20210920021649 85 352 0.0 4.3 0.00 0.15 0.00 46 1007.5
20210920021113 84 352 2.6 4.3 0.00 0.15 0.00 47 1007.5
20210920020540 84 352 1.7 4.3 0.00 0.15 0.00 48 1007.4
20210920020053 84 352 1.7 3.5 0.00 0.15 0.00 48 1007.3
20210920015540 84 352 1.7 2.6 0.00 0.15 0.00 49 1007.2
20210920015048 84 352 0.9 3.5 0.00 0.15 0.00 49 1007.2
20210920014543 84 352 0.9 3.5 0.00 0.15 0.00 49 1007.1
20210920014039 85 352 0.9 3.5 0.00 0.15 0.00 50 1007.1
20210920013539 85 352 0.9 4.3 0.00 0.15 0.00 49 1007.2
20210920013122 85 352 1.7 4.3 0.00 0.15 0.00 48 1007.1
20210920012543 85 352 0.9 4.3 0.00 0.15 0.00 47 1007.2
20210920012108 86 352 1.7 4.3 0.00 0.15 0.00 46 1007.1
20210920011606 86 352 1.7 4.3 0.00 0.15 0.00 45 1007.1
20210920011038 86 352 0.9 5.2 0.00 0.15 0.00 46 1007.0
20210920010540 87 352 1.7 7.0 0.00 0.15 0.00 45 1007.0
20210920010058 87 352 3.5 7.0 0.00 0.15 0.00 44 1007.1
20210920005549 87 352 3.5 7.8 0.00 0.15 0.00 43 1007.0
20210920005054 88 352 2.6 7.8 0.00 0.15 0.00 42 1006.9
20210920004710 88 352 4.3 7.8 0.00 0.15 0.00 41 1006.9
20210920004040 88 352 3.5 8.7 0.00 0.15 0.00 41 1006.9
20210920003537 88 352 4.3 8.7 0.00 0.15 0.00 41 1006.8
20210920003109 88 352 4.3 7.8 0.00 0.15 0.00 40 1006.9
20210920002551 88 352 4.3 8.7 0.00 0.15 0.00 40 1006.9
20210920001610 88 352 6.1 8.7 0.00 0.15 0.00 39 1006.9
20210920001037 88 352 2.6 7.8 0.00 0.15 0.00 39 1006.9
20210920000543 87 352 4.3 7.8 0.00 0.15 0.00 39 1006.9
20210920000050 87 352 3.5 7.8 0.00 0.15 0.00 39 1006.9
20210919235535 89 352 3.5 8.7 0.00 0.15 0.00 36 1006.9
20210919235037 89 352 3.5 11.3 0.00 0.15 0.00 35 1007.0
20210919234555 89 352 3.5 13.0 0.00 0.15 0.00 36 1007.0
20210919234104 89 352 6.1 16.5 0.00 0.15 0.00 36 1007.1
20210919233536 89 352 9.6 16.5 0.00 0.15 0.00 36 1007.1
20210919233033 89 352 4.3 19.1 0.00 0.15 0.00 38 1007.2
20210919232531 90 352 9.6 19.1 0.00 0.15 0.00 37 1007.3
20210919232031 92 352 10.4 18.2 0.00 0.15 0.00 37 1007.2
20210919231557 92 352 5.2 14.8 0.00 0.15 0.00 37 1006.9
20210919231101 93 352 6.1 16.5 0.00 0.15 0.00 36 1006.9
20210919230531 94 352 8.7 16.5 0.00 0.15 0.00 36 1007.0
20210919230039 94 352 6.1 12.2 0.00 0.15 0.00 36 1006.7
20210919225529 94 352 7.0 11.3 0.00 0.15 0.00 36 1006.6
20210919225028 94 352 4.3 9.6 0.00 0.15 0.00 36 1006.7
20210919224532 94 352 4.3 10.4 0.00 0.15 0.00 36 1006.7
20210919224038 95 352 5.2 10.4 0.00 0.15 0.00 35 1006.7
20210919223536 95 352 6.1 9.6 0.00 0.15 0.00 35 1006.7
20210919223031 94 352 1.7 5.2 0.00 0.15 0.00 36 1006.7
20210919222536 94 347 0.9 5.2 0.00 0.15 0.00 37 1006.7
20210919222033 94 352 2.6 7.0 0.00 0.15 0.00 38 1006.6
20210919221638 94 352 2.6 7.0 0.00 0.15 0.00 38 1006.9
20210919221033 94 352 0.9 3.5 0.00 0.15 0.00 40 1006.9
20210919220531 93 352 1.7 8.7 0.00 0.15 0.00 38 1006.9
20210919220044 93 352 1.7 8.7 0.00 0.15 0.00 40 1007.0
20210919215521 93 352 1.7 5.2 0.00 0.15 0.00 39 1007.1
20210919215033 93 352 1.7 7.0 0.00 0.15 0.00 40 1007.1
20210919214533 93 352 1.7 7.0 0.00 0.15 0.00 40 1007.1
20210919214019 93 352 3.5 7.0 0.00 0.15 0.00 40 1007.3
20210919213534 93 352 1.7 4.3 0.00 0.15 0.00 40 1007.5
20210919213035 92 352 0.9 3.5 0.00 0.15 0.00 43 1007.6
20210919212516 91 352 0.9 7.0 0.00 0.15 0.00 42 1007.6
20210919212016 90 352 1.7 7.0 0.00 0.15 0.00 44 1007.7
20210919211518 90 352 2.6 5.2 0.00 0.15 0.00 43 1007.7
20210919211019 90 352 1.7 7.8 0.00 0.15 0.00 42 1007.9
20210919210515 91 352 3.5 7.8 0.00 0.15 0.00 42 1008.0
20210919210044 91 352 0.9 7.0 0.00 0.15 0.00 41 1008.0
20210919205520 92 352 1.7 7.0 0.00 0.15 0.00 41 1008.1
20210919205013 92 352 3.5 7.0 0.00 0.15 0.00 40 1008.2
20210919204526 92 352 0.9 5.2 0.00 0.15 0.00 40 1008.3
20210919204012 92 352 1.7 7.8 0.00 0.15 0.00 41 1008.3
20210919203519 93 352 1.7 7.8 0.00 0.15 0.00 40 1008.3
20210919203011 93 352 0.9 5.2 0.00 0.15 0.00 39 1008.3
20210919202510 91 352 2.6 5.2 0.00 0.15 0.00 40 1008.4
20210919202009 91 352 0.9 5.2 0.00 0.15 0.00 41 1008.5
20210919201516 91 352 1.7 7.8 0.00 0.15 0.00 41 1008.6
20210919201008 92 352 2.6 7.8 0.00 0.15 0.00 41 1008.8
20210919200510 91 352 0.9 7.8 0.00 0.15 0.00 43 1008.8
20210919200027 92 352 2.6 7.8 0.00 0.15 0.00 40 1008.8
20210919195505 92 352 0.9 7.0 0.00 0.15 0.00 42 1008.9
20210919195009 91 352 3.5 7.0 0.00 0.15 0.00 42 1009.0
20210919194528 91 352 1.7 3.5 0.00 0.15 0.00 44 1009.1
20210919194003 91 352 0.9 4.3 0.00 0.15 0.00 42 1009.2
20210919193505 91 352 0.9 7.8 0.00 0.15 0.00 43 1009.2
20210919193004 92 352 3.5 7.8 0.00 0.15 0.00 43 1009.3
20210919192501 91 352 0.9 7.0 0.00 0.15 0.00 43 1009.4
20210919192001 91 352 2.6 8.7 0.00 0.15 0.00 43 1009.5
20210919191619 92 352 5.2 8.7 0.00 0.15 0.00 42 1009.6
20210919191114 92 352 1.7 4.3 0.00 0.15 0.00 41 1009.6
20210919190611 91 352 1.7 5.2 0.00 0.15 0.00 44 1009.8
20210919190253 90 352 2.6 5.2 0.00 0.15 0.00 44 1009.9
20210919185557 89 352 1.7 5.2 0.00 0.15 0.00 45 1009.8
20210919185057 90 352 2.6 5.2 0.00 0.15 0.00 45 1010.0
20210919184608 90 352 2.6 7.0 0.00 0.15 0.00 45 1010.1
20210919184053 89 352 2.6 7.0 0.00 0.15 0.00 46 1010.1
20210919183553 89 352 1.7 7.0 0.00 0.15 0.00 46 1010.2
20210919183128 89 352 0.9 4.3 0.00 0.15 0.00 48 1010.3
20210919182604 89 352 1.7 4.3 0.00 0.15 0.00 48 1010.4
20210919182052 88 352 0.9 4.3 0.00 0.15 0.00 47 1010.6
20210919181713 88 352 2.6 4.3 0.00 0.15 0.00 48 1010.7
20210919181104 88 352 1.7 4.3 0.00 0.15 0.00 48 1010.7
20210919180556 87 352 1.7 4.3 0.00 0.15 0.00 49 1010.7
20210919180207 87 352 1.7 4.3 0.00 0.15 0.00 49 1010.8
20210919175606 87 352 0.9 4.3 0.00 0.15 0.00 49 1011.0
20210919175048 86 352 1.7 4.3 0.00 0.15 0.00 51 1011.0
20210919174616 86 352 0.0 3.5 0.00 0.15 0.00 51 1011.1
20210919174047 86 352 1.7 3.5 0.00 0.15 0.00 52 1011.1
20210919173551 86 352 0.9 4.3 0.00 0.15 0.00 52 1011.1
20210919173125 86 352 2.6 5.2 0.00 0.15 0.00 52 1011.1
20210919172549 85 352 2.6 5.2 0.00 0.15 0.00 54 1011.1
20210919172113 85 352 1.7 4.3 0.00 0.15 0.00 52 1011.3
20210919171631 85 352 0.9 5.2 0.00 0.15 0.00 54 1011.4
20210919171056 85 352 2.6 7.0 0.00 0.15 0.00 55 1011.3
20210919170551 84 352 2.6 7.0 0.00 0.15 0.00 56 1011.4
20210919170145 84 352 2.6 5.2 0.00 0.15 0.00 57 1011.4
20210919165542 83 352 3.5 5.2 0.00 0.15 0.00 58 1011.5
20210919165050 83 352 2.6 5.2 0.00 0.15 0.00 59 1011.5
20210919164610 83 352 1.7 7.0 0.00 0.15 0.00 60 1011.5
20210919164042 82 352 2.6 5.2 0.00 0.15 0.00 61 1011.5
20210919163539 82 352 1.7 5.2 0.00 0.15 0.00 63 1011.6
20210919163103 81 352 2.6 5.2 0.00 0.15 0.00 62 1011.6
20210919162539 81 352 2.6 5.2 0.00 0.15 0.00 63 1011.7
20210919162039 81 352 1.7 4.3 0.00 0.15 0.00 65 1011.7
20210919161620 81 352 1.7 4.3 0.00 0.15 0.00 65 1011.7
20210919161038 80 352 1.7 4.3 0.00 0.15 0.00 65 1011.7
20210919160534 80 352 0.9 4.3 0.00 0.15 0.00 67 1011.7
20210919160047 79 352 1.7 3.5 0.00 0.15 0.00 67 1011.8
20210919155545 79 352 1.7 4.3 0.00 0.15 0.00 69 1011.8
20210919155037 78 352 1.7 4.3 0.00 0.15 0.00 71 1011.8
20210919154545 78 352 1.7 3.5 0.00 0.15 0.00 71 1011.7
20210919154028 78 352 0.9 3.5 0.00 0.15 0.00 73 1011.6
20210919153538 77 352 1.7 3.5 0.00 0.15 0.00 73 1011.6
20210919153134 77 352 1.7 3.5 0.00 0.15 0.00 73 1011.7
20210919152532 76 352 1.7 4.3 0.00 0.15 0.00 76 1011.7
20210919152024 76 352 1.7 3.5 0.00 0.15 0.00 74 1011.6
20210919151529 76 352 1.7 3.5 0.00 0.15 0.00 76 1011.6
20210919151034 76 352 2.6 3.5 0.00 0.15 0.00 76 1011.5
20210919150523 75 352 1.7 3.5 0.00 0.15 0.00 78 1011.5
20210919150121 75 352 0.9 3.5 0.00 0.15 0.00 77 1011.6
20210919145522 75 352 1.7 3.5 0.00 0.15 0.00 78 1011.7
20210919145030 74 352 1.7 4.3 0.00 0.15 0.00 79 1011.7
20210919144535 74 352 2.6 4.3 0.00 0.15 0.00 80 1011.6
20210919144021 74 352 1.7 4.3 0.00 0.15 0.00 79 1011.5
20210919143541 73 352 1.7 4.3 0.00 0.15 0.00 81 1011.5
20210919143048 73 352 2.6 4.3 0.00 0.15 0.00 81 1011.5
20210919142520 73 352 1.7 4.3 0.00 0.15 0.00 81 1011.5
20210919142021 72 352 2.6 7.0 0.00 0.15 0.00 81 1011.5
20210919141545 72 352 3.5 7.0 0.00 0.15 0.00 81 1011.5
20210919141021 72 352 2.6 7.8 0.00 0.15 0.00 82 1011.5
20210919140526 72 352 1.7 4.3 0.00 0.15 0.00 82 1011.4
20210919140021 72 352 0.9 4.3 0.00 0.15 0.00 83 1011.4
20210919135524 72 352 2.6 4.3 0.00 0.15 0.00 83 1011.4
20210919135026 72 352 0.9 3.5 0.00 0.15 0.00 84 1011.4
20210919134547 72 352 1.7 3.5 0.00 0.15 0.00 83 1011.4
20210919134029 71 352 0.9 2.6 0.00 0.15 0.00 84 1011.4
20210919133519 71 352 1.7 2.6 0.00 0.15 0.00 84 1011.2
20210919133120 71 352 1.7 3.5 0.00 0.15 0.00 84 1011.1
20210919132538 71 352 1.7 3.5 0.00 0.15 0.00 84 1011.0
20210919132018 71 352 1.7 3.5 0.00 0.15 0.00 84 1011.0
20210919131523 71 352 1.7 3.5 0.00 0.15 0.00 84 1011.0
20210919131018 71 352 1.7 4.3 0.00 0.15 0.00 84 1011.0
20210919130518 71 352 2.6 4.3 0.00 0.15 0.00 85 1011.0
20210919130048 71 352 1.7 3.5 0.00 0.15 0.00 86 1010.9
20210919125518 71 352 1.7 3.5 0.00 0.15 0.00 86 1010.9
20210919125018 71 352 1.7 3.5 0.00 0.15 0.00 85 1010.9
20210919124521 71 352 1.7 3.5 0.00 0.15 0.00 85 1011.0
20210919124016 71 352 1.7 3.5 0.00 0.15 0.00 84 1011.0
20210919123515 71 352 1.7 3.5 0.00 0.15 0.00 84 1011.0
20210919123034 71 352 1.7 4.3 0.00 0.15 0.00 83 1010.9
20210919122516 71 352 1.7 4.3 0.00 0.15 0.00 83 1010.9
20210919122015 72 352 1.7 4.3 0.00 0.15 0.00 83 1010.7
20210919121515 72 352 1.7 5.2 0.00 0.15 0.00 84 1010.7
20210919121015 71 352 2.6 5.2 0.00 0.15 0.00 84 1010.7
20210919120514 71 352 2.6 4.3 0.00 0.15 0.00 84 1010.6
20210919120019 72 352 1.7 4.3 0.00 0.15 0.00 84 1010.6
20210919115516 72 352 2.6 4.3 0.00 0.15 0.00 84 1010.6
20210919115018 71 352 2.6 4.3 0.00 0.15 0.00 85 1010.6
20210919114013 72 352 1.7 5.2 0.00 0.15 0.00 85 1010.4
20210919113513 72 352 3.5 5.2 0.00 0.15 0.00 85 1010.4
20210919113013 71 352 1.7 3.5 0.00 0.15 0.00 87 1010.4
20210919112511 72 352 0.9 2.6 0.00 0.15 0.00 87 1010.4
20210919112012 72 352 0.0 1.7 0.00 0.15 0.00 87 1010.4
20210919111528 71 352 0.0 2.6 0.00 0.15 0.00 87 1010.4
20210919111011 72 352 0.0 2.6 0.00 0.15 0.00 87 1010.3
20210919110516 72 352 0.0 2.6 0.00 0.15 0.00 87 1010.2
20210919110020 72 352 0.0 2.6 0.00 0.15 0.00 87 1010.3
20210919105520 72 352 0.9 2.6 0.00 0.15 0.00 87 1010.2
20210919105011 72 352 0.9 3.5 0.00 0.15 0.00 87 1010.3
20210919104516 72 352 0.9 3.5 0.00 0.15 0.00 87 1010.2
20210919104009 72 352 1.7 3.5 0.00 0.15 0.00 87 1010.1
20210919103508 72 352 0.9 2.6 0.00 0.15 0.00 87 1010.2
20210919103008 72 352 0.9 4.3 0.00 0.15 0.00 87 1010.2
20210919102509 72 352 2.6 4.3 0.00 0.15 0.00 87 1010.2
20210919102013 72 352 1.7 4.3 0.00 0.15 0.00 87 1010.2
20210919101527 72 352 2.6 4.3 0.00 0.15 0.00 87 1010.3
20210919101007 72 352 1.7 5.2 0.00 0.15 0.00 87 1010.2
20210919100513 72 352 2.6 5.2 0.00 0.15 0.00 87 1010.4
20210919100007 72 352 2.6 5.2 0.00 0.15 0.00 87 1010.4
20210919095514 72 352 2.6 5.2 0.00 0.15 0.00 88 1010.4
20210919095008 72 352 1.7 5.2 0.00 0.15 0.00 88 1010.5
20210919094505 72 352 2.6 4.3 0.00 0.15 0.00 87 1010.5
20210919094004 72 352 1.7 4.3 0.00 0.15 0.00 87 1010.6
20210919093514 72 352 1.7 4.3 0.00 0.15 0.00 87 1010.5
20210919093004 73 352 1.7 4.3 0.00 0.15 0.00 87 1010.7
20210919092503 73 352 1.7 3.5 0.00 0.15 0.00 87 1010.7
20210919092002 73 352 0.9 2.6 0.00 0.15 0.00 87 1010.6
20210919091502 73 352 0.0 2.6 0.00 0.15 0.00 87 1010.5
20210919091002 73 352 0.0 3.5 0.00 0.15 0.00 87 1010.6
20210919090501 73 352 1.7 3.5 0.00 0.15 0.00 86 1010.6
20210919090006 73 352 0.0 2.6 0.00 0.15 0.00 85 1010.7
20210919085503 73 352 0.0 0.0 0.00 0.15 0.00 83 1010.7
20210919085107 73 352 0.0 0.0 0.00 0.15 0.00 82 1010.7
20210919084624 73 352 0.0 0.0 0.00 0.15 0.00 83 1010.5
20210919084100 73 352 0.0 0.0 0.00 0.15 0.00 84 1010.5
20210919083558 73 352 0.0 0.0 0.00 0.15 0.00 85 1010.6
20210919083147 73 352 0.0 0.0 0.00 0.15 0.00 85 1010.7
20210919082601 73 352 0.0 0.0 0.00 0.15 0.00 85 1010.8
20210919082058 74 352 0.0 0.0 0.00 0.15 0.00 84 1010.7
20210919081622 74 352 0.0 0.0 0.00 0.15 0.00 83 1010.9
20210919081103 73 352 0.0 0.0 0.00 0.15 0.00 84 1010.8
20210919080559 73 352 0.0 0.0 0.00 0.15 0.00 86 1010.8
20210919080200 73 352 0.0 0.0 0.00 0.15 0.00 85 1011.0
20210919075609 74 352 0.0 0.0 0.00 0.15 0.00 85 1010.9
20210919075055 73 352 0.0 0.0 0.00 0.15 0.00 85 1011.0
20210919074707 73 352 0.0 0.0 0.00 0.15 0.00 84 1011.0
20210919074115 74 352 0.0 0.0 0.00 0.15 0.00 84 1011.0
20210919073554 74 352 0.0 2.6 0.00 0.15 0.00 84 1011.0
20210919073108 73 352 0.0 2.6 0.00 0.15 0.00 84 1011.1
20210919072601 74 352 0.9 3.5 0.00 0.15 0.00 84 1011.1
20210919072054 74 352 1.7 2.6 0.00 0.15 0.00 84 1011.1
20210919071618 74 352 0.0 2.6 0.00 0.15 0.00 83 1011.2
20210919071051 74 352 0.0 2.6 0.00 0.15 0.00 83 1011.4
20210919070550 74 352 0.9 2.6 0.00 0.15 0.00 82 1011.3
20210919070108 74 352 0.9 1.7 0.00 0.15 0.00 84 1011.4
20210919065550 75 352 0.0 1.7 0.00 0.15 0.00 84 1011.3
20210919065049 75 352 0.0 0.0 0.00 0.15 0.00 82 1011.3
20210919064633 75 352 0.0 1.7 0.00 0.15 0.00 82 1011.5
20210919064049 74 352 0.0 1.7 0.00 0.15 0.00 83 1011.4
20210919063547 75 352 0.0 0.0 0.00 0.15 0.00 82 1011.4
20210919063129 75 352 0.0 0.0 0.00 0.15 0.00 81 1011.3
20210919062546 75 352 0.0 1.7 0.00 0.15 0.00 83 1011.3
20210919062056 75 352 0.0 2.6 0.00 0.15 0.00 80 1011.5
20210919061657 76 352 0.0 2.6 0.00 0.15 0.00 80 1011.4
20210919061100 76 352 0.9 3.5 0.00 0.15 0.00 79 1011.4
20210919060543 75 352 1.7 3.5 0.00 0.15 0.00 81 1011.5
20210919060115 75 352 0.9 2.6 0.00 0.15 0.15 83 1011.6
20210919055547 75 352 0.0 0.0 0.00 0.15 0.15 82 1011.6
20210919055049 75 352 0.0 0.0 0.00 0.15 0.15 83 1011.6
20210919054550 75 352 0.0 1.7 0.00 0.15 0.15 83 1011.5